Eureka, CA

8:38 AM PDT on March 30, 2017 (GMT -0700)
20-30 Park | | Change Station

Elev 85 ft 40.79 °N, 124.17 °W | Updated 8 seconds ago

Rain
Rain
46.2 °F
Feels Like 44 °F
N
4.5
Wind Variable Wind from North
Gusts 7.4 mph

Today
High -- | Low -- °F
--% Chance of Precip.
Yesterday
High -- | Low -- °F
Precip. -- in
Pressure 30.26 in
Visibility 6.0 miles
Clouds Overcast 5000 ft
Windchill 44 °F
Dew Point 40 °F
Humidity 79%
Rainfall 0.05 in
Snow Depth Not available.
7:02 AM 7:39 PM
Waxing Crescent, 9% visible
METAR KACV 301453Z AUTO 35013G17KT 6SM BR OVC050 09/07 A3024 RMK AO2 SLP245 60002 T00940072 53029
Pressure 30.26 in
Visibility 6.0 miles
Clouds Overcast 5000 ft
Windchill 44 °F
Dew Point 40 °F
Humidity 79%
Rainfall 0.05 in
Snow Depth Not available.
7:02 AM 7:39 PM
Waxing Crescent, 9% visible
METAR KACV 301453Z AUTO 35013G17KT 6SM BR OVC050 09/07 A3024 RMK AO2 SLP245 60002 T00940072 53029

Get Severe Weather Alerts

Thanks for signing up!

Be on the lookout for a verification email in your inbox.

You'll start receiving the daily forecast at 8 AM.

×

10-Day Weather Forecast

Almanac

Astronomy

Mar. 30, 2017 Rise Set
Actual Time
Civil Twilight
Nautical Twilight
Astronomical Twilight
Moon
Length of Visible Light
Length of Day
Tomorrow will be .
, % of the Moon is Illuminated

Today's Extremes

State Highs State Lows

Community

WunderPhotos

Upload Photos

1,962,540 photos uploaded!

WunderBlog® & News

Nearby

Air Quality

  Air Quality AQ Index Pollutant
Not available.

Snow Depth

Station Depth Elevation

Earthquake Activity

City Distance Mag. Time & Date
Minimum magnitude displayed is 2.5.

Earthquake Activity

City Distance Mag. Time & Date
Minimum magnitude displayed is 2.5.

Coastal Water Temperatures

Place Temperature

Stations

Nearby Weather Stations

Station Location Temp. Windchill Dew Point Humidity Wind Precip. Elev Updated Type
                   

Watches & Warnings

There are currently no watches in effect.